Regional Weather Roundup
Issued by NWS

Home | Current Version | Previous Version | Text Only | Print | Product List | Glossary Off
Versions: 1 2 3 4 5 6 7 8 9 10 11 12 13 14 15 16 17 18 19 20 21 22 23 24 25 26 27

000
ASUS45 KCYS 240010
RWRWY

WYOMING REGIONAL WEATHER ROUNDUP
NATIONAL WEATHER SERVICE CHEYENNE WY
600 PM MDT WED APR 23 2014

NOTE:  "FAIR" INDICATES FEW OR NO CLOUDS BELOW 12,000 FEET
WITH NO SIGNIFICANT WEATHER AND/OR OBSTRUCTIONS TO VISIBILITY.

WYZ001-240100-
YELLOWSTONE NATIONAL PARK

CITY           SKY/WX    TMP DP  RH WIND       PRES   REMARKS
LK YELLOWSTONE   N/A     28  22  78 VRB3      29.90S
6HR MIN TEMP:  24; 6HR MAX TEMP:  34; 6HR PCP:  0.01;

W YELLOWSTONE  NOT AVBL

$$
WYZ002>013-054>058-071-098>099-240100-
NORTHERN WYOMING

CITY           SKY/WX    TMP DP  RH WIND       PRES   REMARKS
JACKSON        PTSUNNY   34  27  75 S16G22    29.95R WCI  23
CODY           MOSUNNY   46  12  25 W10G16    29.81R
GREYBULL       MOSUNNY   57   5  12 W21       29.76R
6HR MIN TEMP:  50; 6HR MAX TEMP:  58;

WORLAND        CLOUDY    55   9  16 N17       29.78R
6HR MIN TEMP:  46; 6HR MAX TEMP:  55; 6HR PCP: TRACE;

SHERIDAN         N/A     43   9  24 W22G37      N/A
6HR MIN TEMP:  45; 6HR MAX TEMP:  55;

BUFFALO        CLOUDY    46  24  42 N18G28    29.78R
6HR MIN TEMP:  44; 6HR MAX TEMP:  52;

GILLETTE       PTSUNNY   50  25  37 NW16      29.75R
6HR MIN TEMP:  41; 6HR MAX TEMP:  52;

HULETT         FAIR      50  30  46 NW8G17    29.75
NEWCASTLE      FAIR      50  30  46 NW18G25   29.74

$$
WYZ014>020-022>026-101>103-240100-
CENTRAL WYOMING

CITY           SKY/WX    TMP DP  RH WIND       PRES   REMARKS
BIG PINEY      MOSUNNY   39  14  36 W14       29.97R WCI  31
6HR MIN TEMP:  36; 6HR MAX TEMP:  43;

PINEDALE       PTCLDY    37  14  38 W17G24    29.97R WCI  28
DUBOIS         FAIR      36  10  35 NW26G37   29.86S WCI  23
LANDER         MOSUNNY   48   7  18 W21G30    29.86R
6HR MIN TEMP:  47; 6HR MAX TEMP:  51;

RIVERTON       SUNNY     49   1  14 W30G39    29.84R
6HR MIN TEMP:  49; 6HR MAX TEMP:  53; 6HR PCP: TRACE;

CASPER         CLOUDY    51  12  21 W28G33    29.77R
6HR MIN TEMP:  50; 6HR MAX TEMP:  57;

DOUGLAS        CLOUDY    57  10  15 W24G35    29.74R
6HR MIN TEMP:  55; 6HR MAX TEMP:  60;


$$
WYZ021-027>030-104>119-240100-
SOUTHERN WYOMING

CITY           SKY/WX    TMP DP  RH WIND       PRES   REMARKS
EVANSTON       MOSUNNY   38  14  37 W17       30.03R WCI  28
6HR MIN TEMP:  34; 6HR MAX TEMP:  41;

KEMMERER       MOCLDY    36  18  48 W22       30.00R WCI  24
FORT BRIDGER   MOCLDY    41  18  39 W18G26    30.04S
ROCK SPRINGS   MOSUNNY   44   4  19 W23G33    29.96R
6HR MIN TEMP:  40; 6HR MAX TEMP:  47;

DIXON          FAIR      47  13  25 W21G28    29.95R
RAWLINS        PTSUNNY   45   4  18 W26G40    29.88R
6HR MIN TEMP:  44; 6HR MAX TEMP:  49;

SARATOGA       FAIR      45   9  23 W23G35    29.91R
LARAMIE        CLOUDY    46  13  26 W20G33    29.82R
6HR MIN TEMP:  44; 6HR MAX TEMP:  51;

CHEYENNE       CLOUDY    50  18  28 NW25G39   29.74R
6HR MIN TEMP:  50; 6HR MAX TEMP:  59;

TORRINGTON     CLOUDY    58  11  15 NW20G25   29.71R
6HR MIN TEMP:  58; 6HR MAX TEMP:  64;

PINE BLUFFS    CLOUDY    54  19  26 NW25G31   29.75R

$$



USA.gov is the U.S. government's official web portal to all federal, state and local government web resources and services.